This demonstration page uses our WeatherBlox Daily Observations layout. Learn more.

Left ArrowRight Arrow

38.88101, -77.10428

Hourly Observations for September 5, 2022

Temp ( °F °C ) Dew Point ( °F °C ) Humidity (%) Winds ( mph kmh ) Pressure ( in mb ) Visibility ( mi km ) Precip ( " mm )
12:52 am 00:52 Mostly Cloudy 78 25.6 67 19.4 69 69 S 12 19 30.08 1019 10 16 0.00 0.00
1:52 am 01:52 Mostly Cloudy 76 24.4 67 19.4 74 74 SSW 9 15 30.07 1018 10 16 0.00 0.00
2:52 am 02:52 Mostly Cloudy 76 24.4 68 20 77 77 S 9 15 30.07 1018 10 16 0.00 0.00
3:52 am 03:52 Cloudy 75 23.9 68 20 79 79 SSW 9 15 30.07 1018 10 16 0.00 0.00
4:52 am 04:52 Mostly Clear 74 23.3 68 20 82 82 SSE 6 9 30.06 1018 10 16 0.00 0.00
5:52 am 05:52 Partly Cloudy 74 23.3 68 20 82 82 S 7 11 30.07 1018 10 16 0.00 0.00
6:52 am 06:52 Cloudy 74 23.3 67 19.4 79 79 S 10 17 30.08 1019 10 16 0.00 0.00
7:52 am 07:52 Cloudy 75 23.9 67 19.4 76 76 S 8 13 30.09 1019 10 16 0.00 0.00
8:52 am 08:52 Cloudy 76 24.4 68 20 77 77 S 9 15 30.09 1019 10 16 0.00 0.00
9:52 am 09:52 Cloudy 79 26.1 69 20.6 72 72 SSE 10 17 30.09 1019 10 16 0.00 0.00
10:52 am 10:52 Cloudy 80 26.7 70 21.1 71 71 SSE 9 15 30.09 1019 10 16 0.00 0.00
11:52 am 11:52 Mostly Cloudy 84 28.9 71 21.7 65 65 S 12 19 30.08 1019 10 16 0.00 0.00
12:52 pm 12:52 Cloudy 85 29.4 71 21.7 63 63 S 9 15 30.07 1018 10 16 0.00 0.00
1:52 pm 13:52 Cloudy 85 29.4 71 21.7 63 63 S 13 20 30.05 1018 10 16 0.00 0.00
2:52 pm 14:52 Cloudy 86 30 69 20.6 57 57 S 8 13 30.04 1017 10 16 0.00 0.00
3:52 pm 15:52 Cloudy 87 30.6 69 20.6 55 55 S 12 19 30.02 1017 10 16 0.00 0.00
4:52 pm 16:52 Cloudy 86 30 68 20 55 55 S 10 17 30.01 1016 10 16 0.00 0.00
5:52 pm 17:52 Cloudy with Light Rain 82 27.8 70 21.1 67 67 SE 9 15 30.02 1017 9 14 0.01 0.13
6:17 pm 18:17 Cloudy with Light Rain 78 25.6 70 21.1 76 76 SSE 14 22 30.03 1017 4 6 0.01 0.13
6:23 pm 18:23 Cloudy with Heavy Rain 76 24.4 70 21.1 82 82 SSE 3 6 30.02 1017 2 3 0.07 1.78
6:29 pm 18:29 Cloudy with Light Rain 76 24.4 71 21.7 85 85 Calm 30.02 1017 3 5 0.09 2.29
6:33 pm 18:33 Cloudy with Light Rain 77 25 71 21.7 82 82 Calm 30.02 1017 10 16 0.09 2.29
6:52 pm 18:52 Cloudy 78 25.6 72 22.2 82 82 SSW 3 6 30.01 1016 10 16 0.09 2.29
7:52 pm 19:52 Mostly Cloudy 79 26.1 70 21.1 74 74 S 3 6 30.01 1016 10 16 0.01 0.13
8:52 pm 20:52 Mostly Cloudy 78 25.6 69 20.6 74 74 SSE 7 11 30.02 1017 10 16 0.00 0.00
9:52 pm 21:52 Mostly Cloudy 78 25.6 70 21.1 76 76 SSE 9 15 30.02 1017 10 16 0.00 0.00
10:52 pm 22:52 Cloudy with Light Rain 78 25.6 70 21.1 76 76 S 8 13 30.02 1017 10 16 0.01 0.13
11:52 pm 23:52 Cloudy 78 25.6 70 21.1 76 76 S 10 17 30.01 1016 10 16 0.01 0.13

Powered by AerisWeather